Meadville, PA

8:14 AM EDT on June 28, 2017 (GMT -0400)
Port Meadville

Weather History for KGKJ - April, 2014

Change the Weather History Date:

Saturday, April 12, 2014

  Actual Average Record
Temperature  
Mean Temperature 55 °F -  
Max Temperature 69 °F 53 °F 83 °F (1977)
Min Temperature 42 °F 29 °F 18 °F (1976)
Degree Days  
Heating Degree Days 10    
Growing Degree Days 5 (Base 50)    
Moisture  
Dew Point 37 °F    
Average Humidity 55    
Maximum Humidity 93    
Minimum Humidity 25    
Precipitation  
Precipitation 0.00 in - - ()
Sea Level Pressure  
Sea Level Pressure 30.09 in    
Wind  
Wind Speed 6 mph (South)    
Max Wind Speed 12 mph    
Max Gust Speed 20 mph    
Visibility 9 miles    
Events      
Averages and records for this station are not official NWS values.
T = Trace of Precipitation, MM = Missing Value Source: NWS Daily Summary

Daily Weather History Graph

Daily Weather History Graph

Search for Another Location

Airport or City:

Trip Planner

Search our weather history database for the weather conditions in past years. The results will help you decide how hot, cold, wet, or windy it might be!

Date:

Astronomy

Apr. 12, 2014 Rise Set
Actual Time 6:45 AM EDT 7:58 PM EDT
Civil Twilight 6:17 AM EDT 8:26 PM EDT
Nautical Twilight 5:42 AM EDT 9:01 PM EDT
Astronomical Twilight 5:06 AM EDT 9:37 PM EDT
Moon 5:33 PM EDT (4/12) 5:13 AM EDT (4/12)
Length of Visible Light 14h 09m
Length of Day
13h 12m
Waxing Gibbous, 93% of the Moon is Illuminated
Apr 12
Waxing Gibbous
Apr 15
Full
Apr 22
Last Quarter
Apr 29
New
May 6
First Quarter

Hourly Weather History & Observations

Time (EDT) Temp. Windchill Dew Point Humidity Pressure Visibility Wind Dir Wind Speed Gust Speed Precip Events Conditions
12:53 AM 44.1 °F 41.5 °F 42.1 °F 93% 30.09 in 4.0 mi South 4.6 mph - N/A   Clear
1:53 AM 44.1 °F 40.8 °F 42.1 °F 93% 30.09 in 7.0 mi SSE 5.8 mph - N/A   Clear
2:53 AM 44.1 °F 40.1 °F 41.0 °F 89% 30.09 in 6.0 mi South 6.9 mph - N/A   Clear
3:53 AM 43.0 °F 38.8 °F 39.9 °F 89% 30.11 in 7.0 mi South 6.9 mph - N/A   Clear
4:53 AM 43.0 °F 39.5 °F 39.9 °F 89% 30.14 in 9.0 mi South 5.8 mph - N/A   Clear
5:53 AM 42.1 °F 39.2 °F 39.0 °F 89% 30.16 in 9.0 mi South 4.6 mph - N/A   Clear
6:53 AM 42.1 °F - 39.0 °F 89% 30.17 in 7.0 mi Calm Calm - N/A   Clear
7:53 AM 42.1 °F 40.2 °F 39.9 °F 92% 30.18 in 5.0 mi SE 3.5 mph - N/A   Clear
8:53 AM 48.0 °F - 41.0 °F 77% 30.18 in 10.0 mi Variable 4.6 mph - N/A   Clear
9:53 AM 52.0 °F - 42.1 °F 69% 30.18 in 10.0 mi South 4.6 mph - N/A   Clear
10:53 AM 57.9 °F - 42.1 °F 56% 30.18 in 10.0 mi Variable 4.6 mph - N/A   Clear
11:53 AM 62.1 °F - 41.0 °F 46% 30.17 in 10.0 mi South 8.1 mph - N/A   Clear
12:53 PM 63.0 °F - 37.0 °F 38% 30.14 in 10.0 mi SSW 11.5 mph 19.6 mph N/A   Clear
1:53 PM 64.9 °F - 36.0 °F 34% 30.12 in 10.0 mi South 10.4 mph 16.1 mph N/A   Clear
2:53 PM 66.9 °F - 35.1 °F 31% 30.11 in 10.0 mi SSW 11.5 mph - N/A   Clear
3:53 PM 68.0 °F - 32.0 °F 26% 30.07 in 10.0 mi South 11.5 mph - N/A   Clear
4:53 PM 68.0 °F - 34.0 °F 28% 30.06 in 10.0 mi South 10.4 mph 17.3 mph N/A   Clear
5:53 PM 68.0 °F - 30.9 °F 25% 30.03 in 10.0 mi South 8.1 mph - N/A   Partly Cloudy
6:53 PM 66.9 °F - 30.9 °F 26% 30.02 in 10.0 mi Variable 3.5 mph - N/A   Scattered Clouds
7:53 PM 64.9 °F - 30.9 °F 28% 30.00 in 10.0 mi Variable 3.5 mph - N/A   Mostly Cloudy
8:53 PM 63.0 °F - 30.9 °F 30% 30.00 in 10.0 mi Variable 3.5 mph - N/A   Overcast
9:53 PM 63.0 °F - 30.0 °F 29% 29.96 in 10.0 mi Variable 3.5 mph - N/A   Partly Cloudy
10:53 PM 64.0 °F - 30.0 °F 28% 29.94 in 10.0 mi Variable 3.5 mph - N/A   Overcast
11:53 PM 63.0 °F - 30.0 °F 29% 29.93 in 10.0 mi Variable 3.5 mph - N/A   Scattered Clouds